Total_Precipitation_Accumulation
2.19 2.48 2.48 2.60 2.27 2.25 2.30 2.22 2.01 1.91 1.73 1.56 1.47 1.44 1.49 1.42 1.49 1.69 1.69 1.66 1.76 2.10 2.52 2.73 2.70 2.70 2.64 2.55 2.40 2.26 2.07 1.94 1.82 1.68 1.48 1.28 1.20 1.19 1.22 1.24 1.24 1.21 1.21
2.67 3.00 3.08 3.03 2.78 2.80 2.96 2.98 2.78 2.53 2.29 2.15 1.93 1.88 1.82 1.81 1.92 1.95 1.92 1.84 1.72 1.79 2.22 2.64 2.93 3.11 3.08 2.81 2.56 2.44 2.36 2.22 2.06 1.88 1.74 1.59 1.44 1.38 1.36 1.34 1.33 1.28 1.21
3.20 3.32 3.57 3.50 3.27 3.25 3.30 3.26 3.43 3.39 2.89 2.54 2.35 2.29 2.27 2.20 2.24 2.30 2.34 2.25 1.99 1.87 2.00 2.30 2.60 2.81 2.93 2.93 2.79 2.65 2.64 2.40 2.18 2.01 1.89 1.78 1.70 1.62 1.52 1.45 1.45 1.44 1.36
3.53 3.58 3.58 3.60 3.50 3.47 3.75 3.85 3.79 3.72 3.46 3.10 2.85 2.60 2.48 2.53 2.35 2.29 2.32 2.32 2.34 2.03 1.84 1.84 2.01 2.23 2.54 2.85 3.02 3.05 2.92 2.70 2.46 2.26 2.17 2.05 1.90 1.76 1.61 1.52 1.51 1.52 1.48
3.97 4.03 4.00 4.06 3.91 3.95 3.90 3.77 4.08 4.01 3.84 3.49 3.00 2.74 2.50 2.50 2.38 2.10 2.09 2.15 2.21 2.11 2.00 1.81 1.86 2.03 2.35 2.70 3.00 3.20 3.16 3.01 2.82 2.62 2.51 2.39 2.22 2.00 1.80 1.67 1.63 1.61 1.62
4.71 4.67 4.60 4.60 4.46 4.34 4.19 4.14 4.15 3.93 3.77 3.53 2.99 2.75 2.47 2.17 2.12 2.09 1.89 1.93 1.95 1.83 1.91 1.92 1.98 1.85 2.05 2.34 2.65 2.91 3.00 3.07 3.02 2.77 2.57 2.54 2.45 2.23 2.03 1.91 1.84 1.76 1.76
5.12 4.97 4.79 4.87 4.72 4.50 4.26 4.15 4.12 4.00 3.64 3.49 3.45 3.07 2.51 2.13 1.97 1.83 1.82 1.82 1.70 1.71 1.91 1.93 1.92 1.85 1.78 1.98 2.11 2.32 2.63 2.87 3.08 3.06 2.92 2.80 2.56 2.31 2.17 2.09 2.06 2.01 1.92
5.39 5.21 5.18 5.02 4.79 4.62 4.38 4.19 4.11 4.00 3.66 3.57 3.59 3.52 2.84 2.33 1.83 1.46 1.56 1.58 1.54 1.60 1.65 1.62 1.61 1.66 1.70 1.78 1.75 1.94 2.24 2.52 2.83 3.01 3.05 2.83 2.66 2.44 2.34 2.31 2.28 2.25 2.18
5.67 5.50 5.44 5.18 4.94 4.66 4.33 4.07 3.93 3.81 3.68 3.63 3.52 3.62 3.12 2.51 2.02 1.63 1.45 1.35 1.39 1.54 1.55 1.56 1.50 1.45 1.52 1.67 1.75 1.77 1.86 1.90 2.21 2.54 2.70 2.75 2.71 2.56 2.45 2.42 2.40 2.40 2.42
5.08 4.93 4.88 4.70 4.51 4.24 4.00 3.73 3.63 3.56 3.66 3.49 3.41 3.24 2.99 2.64 2.38 2.02 1.70 1.49 1.41 1.43 1.46 1.46 1.44 1.45 1.47 1.58 1.69 1.68 1.64 1.57 1.71 1.97 2.17 2.26 2.32 2.32 2.32 2.33 2.33 2.36 2.43
4.32 4.08 4.01 3.91 3.77 3.58 3.40 3.32 3.32 3.27 3.24 3.09 2.94 2.90 2.89 2.82 2.53 2.21 1.91 1.65 1.55 1.47 1.45 1.46 1.55 1.56 1.55 1.57 1.55 1.53 1.51 1.43 1.45 1.59 1.72 1.80 1.92 2.05 2.14 2.14 2.14 2.22 2.35
3.66 3.31 3.16 3.07 2.94 2.84 2.84 2.86 2.90 2.87 2.87 2.83 2.74 2.63 2.54 2.54 2.39 2.29 2.03 1.81 1.78 1.66 1.55 1.48 1.44 1.49 1.56 1.56 1.53 1.63 1.39 1.26 1.23 1.27 1.39 1.52 1.63 1.75 1.86 1.97 2.11 2.21 2.30
3.03 2.75 2.58 2.53 2.43 2.38 2.38 2.50 2.58 2.52 2.48 2.50 2.48 2.39 2.34 2.28 2.21 2.19 2.24 2.08 1.82 1.59 1.52 1.47 1.37 1.35 1.38 1.48 1.58 1.60 1.29 1.17 1.15 1.20 1.25 1.28 1.39 1.49 1.58 1.66 1.81 1.99 2.07
2.47 2.30 2.18 2.11 2.02 1.94 1.92 2.05 2.17 2.23 2.20 2.23 2.24 2.31 2.24 2.13 2.07 2.01 2.07 2.16 2.08 1.86 1.68 1.57 1.50 1.46 1.46 1.46 1.59 1.58 1.32 1.35 1.24 1.25 1.24 1.20 1.23 1.26 1.28 1.30 1.33 1.46 1.61
1.90 1.78 1.73 1.70 1.64 1.61 1.67 1.80 1.87 1.83 1.85 1.91 2.01 2.12 2.12 2.10 2.08 2.01 2.06 2.14 2.22 2.15 1.95 1.73 1.68 1.59 1.61 1.61 1.72 1.39 1.40 1.57 1.39 1.28 1.21 1.16 1.15 1.09 1.05 1.04 1.02 1.02 1.06
1.59 1.50 1.46 1.46 1.45 1.43 1.47 1.52 1.62 1.64 1.61 1.62 1.75 1.89 1.97 2.00 2.09 2.13 2.21 2.24 2.24 2.24 2.14 1.84 1.74 1.67 1.64 1.57 1.82 1.56 1.53 1.58 1.37 1.21 1.10 1.02 0.98 0.95 0.91 0.91 0.93 0.94 0.93
1.65 1.52 1.42 1.45 1.45 1.40 1.38 1.42 1.41 1.46 1.51 1.52 1.57 1.66 1.76 1.80 1.90 1.94 2.00 2.03 2.12 2.17 2.14 1.94 1.80 1.77 1.73 1.71 1.74 1.59 1.49 1.41 1.31 1.20 1.05 0.95 0.92 0.89 0.87 0.87 0.89 0.89 0.89
1.36 1.30 1.27 1.31 1.30 1.23 1.22 1.20 1.16 1.19 1.26 1.34 1.40 1.45 1.54 1.56 1.62 1.62 1.72 1.78 1.80 1.87 1.92 1.98 2.00 1.93 1.84 1.80 1.71 1.55 1.34 1.17 1.13 1.12 1.01 0.96 0.94 0.94 0.95 0.96 0.94 0.92 0.87
1.28 1.28 1.24 1.21 1.18 1.11 1.05 1.01 1.02 1.02 1.01 1.09 1.18 1.21 1.26 1.30 1.30 1.28 1.35 1.37 1.46 1.56 1.76 1.85 1.87 1.91 1.88 1.87 1.88 1.61 1.42 1.37 1.05 1.00 0.94 0.94 0.94 0.92 0.90 0.88 0.86 0.84 0.81
1.23 1.29 1.22 1.14 1.04 0.98 0.93 0.96 0.98 0.96 0.94 0.96 0.98 1.01 1.00 1.00 1.00 1.02 1.04 1.10 1.23 1.46 1.64 1.70 1.65 1.67 1.72 1.70 1.82 1.73 1.59 1.46 1.24 0.92 0.86 0.79 0.81 0.83 0.82 0.76 0.74 0.72 0.72
1.11 1.17 1.09 1.03 0.97 0.87 0.82 0.84 0.87 0.88 0.87 0.86 0.87 0.87 0.82 0.83 0.87 0.85 0.81 0.91 1.10 1.34 1.46 1.54 1.56 1.51 1.50 1.54 1.57 1.51 1.50 1.49 1.37 1.11 1.01 0.82 0.75 0.79 0.82 0.81 0.77 0.70 0.65
1.12 1.13 1.08 0.98 0.87 0.74 0.77 0.77 0.72 0.75 0.82 0.87 0.85 0.76 0.69 0.70 0.71 0.71 0.72 0.81 0.94 1.05 1.17 1.30 1.36 1.38 1.37 1.38 1.45 1.46 1.48 1.51 1.48 1.25 1.18 1.06 0.88 0.95 0.91 0.84 0.78 0.69 0.67
1.15 1.08 0.98 0.87 0.81 0.76 0.70 0.66 0.70 0.76 0.82 0.88 0.88 0.86 0.73 0.61 0.68 0.73 0.74 0.77 0.82 0.87 0.97 1.13 1.24 1.24 1.28 1.36 1.51 1.51 1.53 1.53 1.48 1.30 1.30 1.28 1.11 1.07 0.87 0.74 0.77 0.70 0.65
1.11 1.06 0.97 0.86 0.78 0.71 0.68 0.66 0.68 0.69 0.79 0.82 0.82 0.83 0.84 0.81 0.77 0.80 0.77 0.79 0.83 0.88 0.93 1.00 1.15 1.19 1.14 1.22 1.39 1.42 1.43 1.41 1.36 1.28 1.31 1.36 1.13 1.03 0.82 0.85 0.79 0.65 0.59
1.04 0.98 0.92 0.88 0.83 0.73 0.67 0.63 0.65 0.71 0.77 0.73 0.66 0.67 0.68 0.68 0.67 0.72 0.79 0.87 0.89 0.89 0.79 0.84 0.90 0.98 1.09 1.14 1.19 1.25 1.35 1.49 1.45 1.33 1.28 1.36 1.23 1.06 0.92 0.96 0.85 0.71 0.64
0.95 0.85 0.83 0.86 0.85 0.80 0.68 0.59 0.61 0.63 0.68 0.67 0.63 0.62 0.61 0.57 0.55 0.53 0.62 0.81 0.95 0.92 0.85 0.85 0.97 1.12 1.19 1.20 1.15 1.23 1.34 1.44 1.44 1.45 1.28 1.29 1.29 1.18 1.12 0.95 0.88 0.86 0.85